User: anonymous   Login
Location: Unspecified
(0.0000°N, 0.0000°E)
Time: 20:01:23
(UTC+02:00)
Language:

SWIFT - Orbit

View from above orbital plane
View from above orbital plane
View from above satellite
View from above satellite

Ground track
Ground track

The orbit data is extracted from the following two-line orbital elements,

1 28485U 04047A   16208.49416283  .00000947  00000-0  36010-4 0  9990
2 28485  20.5562 250.8255 0011798  85.5631 274.6150 15.03228624639129
Epoch (UTC): 26 July 2016 11:51:35
Eccentricity: 0.0011798
inclination: 20.5562°
perigee height: 549 km
apogee height: 565 km
right ascension of ascending node: 250.8255°
argument of perigee: 85.5631°
revolutions per day: 15.03228624
mean anomaly at epoch: 274.6150°
orbit number at epoch: 63912

The dashed part of the orbit path shows where the satellite is in the earth's shadow,  

DLR